カタログに戻る

NOAA 16 DEB

運用中SSO
NORAD 42428·DEBRIS·🇺🇸 United States

打ち上げ Sep 21, 2000 から Vandenberg Space Force Base

Loading…

次のパス (今後24時間)

TLE

経年Source: Space-Track

元期: Sep 4, 2026, 05:38 UTC

1 42428U 00055TY  26247.23527067  .00000840  00000-0  35178-3 0  9992
2 42428  98.9786  33.0480 0023611   4.1353 356.0018 14.28698727502077

AllMySatでNOAA 16 DEBをリアルタイム追跡

Download on the App Store